TimeEST,TemperatureF,Dew PointF,Humidity,Sea Level PressureIn,VisibilityMPH,Wind Direction,Wind SpeedMPH,Gust SpeedMPH,PrecipitationIn,Events,Conditions,WindDirDegrees,DateUTC
12:53 AM,25.0,19.9,81,30.16,10.0,Calm,Calm,-,N/A,,Clear,0,2012-11-25 05:53:00
1:53 AM,27.0,21.9,81,30.13,10.0,Calm,Calm,-,N/A,,Partly Cloudy,0,2012-11-25 06:53:00
2:53 AM,28.0,21.9,78,30.13,10.0,South,5.8,-,N/A,,Clear,190,2012-11-25 07:53:00
3:53 AM,27.0,19.9,75,30.14,10.0,SSW,3.5,-,N/A,,Clear,210,2012-11-25 08:53:00
4:53 AM,25.0,19.0,78,30.11,10.0,SSW,4.6,-,N/A,,Clear,210,2012-11-25 09:53:00
5:53 AM,28.0,21.0,75,30.09,10.0,South,6.9,-,N/A,,Clear,190,2012-11-25 10:53:00
6:53 AM,28.9,21.0,72,30.09,10.0,South,10.4,-,N/A,,Clear,180,2012-11-25 11:53:00
7:53 AM,30.0,21.9,72,30.06,10.0,South,9.2,-,N/A,,Overcast,190,2012-11-25 12:53:00
8:53 AM,30.9,21.9,69,30.05,10.0,SSW,9.2,-,N/A,,Mostly Cloudy,200,2012-11-25 13:53:00
9:53 AM,34.0,23.0,64,30.04,10.0,SSW,10.4,-,N/A,,Clear,200,2012-11-25 14:53:00
10:53 AM,37.9,23.0,55,30.03,10.0,SSW,9.2,-,N/A,,Clear,200,2012-11-25 15:53:00
11:53 AM,39.9,23.0,51,30.00,10.0,SW,9.2,-,N/A,,Clear,230,2012-11-25 16:53:00
12:53 PM,45.0,24.1,44,29.97,10.0,SW,15.0,20.7,N/A,,Clear,220,2012-11-25 17:53:00
1:53 PM,48.0,25.0,41,29.95,10.0,SW,9.2,18.4,N/A,,Clear,230,2012-11-25 18:53:00
2:53 PM,46.9,24.1,41,29.94,10.0,SSW,8.1,-,N/A,,Clear,210,2012-11-25 19:53:00
3:53 PM,48.0,25.0,41,29.95,10.0,SSW,4.6,-,N/A,,Clear,210,2012-11-25 20:53:00
4:53 PM,46.9,25.0,42,29.96,10.0,SW,6.9,-,N/A,,Clear,220,2012-11-25 21:53:00
5:53 PM,43.0,24.1,47,29.97,10.0,SSW,5.8,-,N/A,,Clear,210,2012-11-25 22:53:00
6:53 PM,42.1,28.9,60,29.99,10.0,SW,4.6,-,N/A,,Clear,220,2012-11-25 23:53:00
7:53 PM,41.0,30.0,65,30.00,10.0,Calm,Calm,-,N/A,,Clear,0,2012-11-26 00:53:00
8:53 PM,39.9,30.9,70,30.02,10.0,Calm,Calm,-,N/A,,Clear,0,2012-11-26 01:53:00
9:53 PM,41.0,28.9,62,30.03,10.0,SW,3.5,-,N/A,,Partly Cloudy,220,2012-11-26 02:53:00
10:53 PM,39.0,30.9,73,30.04,10.0,SW,3.5,-,N/A,,Clear,230,2012-11-26 03:53:00
11:53 PM,39.0,30.0,70,30.07,10.0,Calm,Calm,-,N/A,,Clear,0,2012-11-26 04:53:00